Location: Auckland
(36.8670°S, 174.7670°E)
Time: 04:12:03
(UTC+12:00)

Tiros 1 despin weight - Pass Details

Date: 19 July 2019
Orbit: 594 x 642 km, 48.2° (Epoch: 20 August)

Event Time Altitude Azimuth Distance (km) Brightness Sun altitude
Rises 06:30:35 0° 233° (SW) 2,887 - -11.8°
Reaches altitude 10° 06:32:58 10° 227° (SW) 1,987 - -11.3°
Exits shadow 06:33:24 13° 225° (SW) 1,825 ? -11.2°
Maximum altitude 06:37:23 48° 152° (SSE) 821 ? -10.5°
Drops below altitude 10° 06:41:51 10° 77° (ENE) 2,004 ? -9.6°
Sets 06:44:15 0° 71° (ENE) 2,915 ? -9.2°
